Location: Kielce
(50.8833°N, 20.6167°E)
Time: 03:07:22
(UTC+02:00)

X-37B - Pass Details

Date: 13 March 2021
Orbit: 380 x 394 km, 45.0° (Epoch: 07 April)

Event Time Altitude Azimuth Distance (km) Brightness Sun altitude
Rises 19:57:11 0° 240° (WSW) 2,271 5.0 -22.0°
Reaches altitude 10° 19:59:27 10° 227° (SW) 1,420 3.7 -22.3°
Enters shadow 20:00:00 13° 221° (SW) 1,240 3.3 -22.4°
